Погода в Березовой Луке

Россия / Саратовская область     52°37′14″N   48°25′56″E
темп.,
°C
ветер,
м/с
пор.,
м/с
влажн.,
%
обл.,
%
осадки,
мм/ч
давл.,
гПа
погр.,
м
21 июня, пн
пн2101:00+20ссв22800 0.0 102211
04:00+19ссв12870 0.0 102211
07:00+22св22750 0.0 1022141
10:00+27в01603 0.0 1022722
13:00+30з22475 0.0 10221695
16:00+30сз324514 0.0 10211542
19:00+28ссз235813 0.0 1021101
22:00+24с22545 0.0 102113
22 июня, вт
вт2201:00+22в12605 0.0 102211
04:00+21ссв11645 0.0 102211
07:00+24ссв11625 0.0 102286
10:00+29вюв11501 0.0 1022638
13:00+31зюз22400 0.0 10221633
16:00+31з22410 0.0 10221214
19:00+30зсз12530 0.0 102190
22:00+24ссв115517 0.0 102111
23 июня, ср
ср2301:00+23ссв11593 0.0 102111
04:00+22сз11640 0.0 102111
07:00+25зсз11630 0.0 102181
10:00+29ссз22540 0.0 1021585
13:00+31сз24440 0.0 10201787
16:00+32ссз23387 0.0 10192284
19:00+27сз476614 0.0 1019231
22:00+23ссз22693 0.0 101921
24 июня, чт
чт2401:00+21ссз22671 0.0 101919
04:00+20с22630 0.0 101914
07:00+23ссз23700 0.0 1019136
10:00+28ссз23560 0.0 1019587
13:00+30сз23490 0.0 10181469
16:00+31ююз21431 0.1 10161941
19:00+26сз5869100 0.0 1017292
22:00+20ссв228082 1.4 101742
25 июня, пт
пт2501:00+19ссв228546 0.0 101620
04:00+18сз228747 0.7 101719
07:00+21зсз11723 0.1 1017129
10:00+25зсз11580 0.1 1016497
13:00+28зсз22505 0.0 1016945
16:00+30сз22455 0.0 10151215
19:00+29зсз22560 0.0 1014124
22:00+23з22671 0.1 101413